Sandy Lake Airport
CZSJ : now visible

Airfield :











YOU CAN JOIN US ON...

 
LOGIN :

Register | Disclaimer

   EN    FR    IT 

 









Legend :    VFR   Marginal VFR   IFR   Intensive IFR   Very Intensive IFR
Visi :
Ceiling :
>= 8 km
>= 3000ft
5 to 8 km
1000 to 3000 ft
1500m to 5 km
500 to 1000 ft
800 to 1500m
200 to 500 ft
< 800m
< 200 ft
Symbols :   Thunderstorms  Fog  Heavy snow  Heavy precipitations  Wind > 20 kt






- Airport Elevation : 951 ft
- IATA code : ZSJ


CZSJ - Sandy Lake

CURRENT METAR :
  • 160613Z AUTO 11005KT 2 1/2SM OVC004 02/02 A2999 RMK SLP174

EXPIRED METARs :
  • 160525Z AUTO 11008KT 5SM BR OVC004 02/02 A3000 RMK SLP177
  • 160500Z AUTO 11007KT 9SM OVC002 02/02 A3002 RMK SLP182
  • 160418Z AUTO 10010KT 2 1/2SM BR OVC004 02/02 A3003 RMK SLP187
  • 160412Z AUTO 10011KT 5SM BR OVC004 02/02 A3003 RMK SLP188
  • 160332Z AUTO 10009G15KT 6SM BR OVC004 02/02 A3003 RMK SLP188

Expired Forecast.
CZWG FIR / North America



MET'MAP, your aeronautical weather chart ! - Copyright ORBIFLY December 2007 - Disclaimer

ORBIFLY MET'MAP TEAM :

Programming & Development : Alexandra Zaïnal
Concept & original design : Baudouin d'Aumeries
Assistance for programming : Marc-Olivier Méhu
Technical & hardware support : Manuel Goepfert

Contact : metmap@orbifly.com




SOURCES & CREDITS :

   NOAA       Earth
Advisory